Tillbaka till svenska Fidonet
English   Information   Debug  
FILM   0/18
FNEWS_PUBLISH   4926
FN_SYSOP   42201
FN_SYSOP_OLD1   71952
FTP_FIDO   0/2
FTSC_PUBLIC   0/13972
FUNNY   0/4886
GENEALOGY.EUR   0/71
GET_INFO   105
GOLDED   0/408
HAM   0/16660
HOLYSMOKE   0/6791
HOT_SITES   0/1
HTMLEDIT   0/71
HUB203   466
HUB_100   264
HUB_400   39
HUMOR   0/29
IC   0/2851
INTERNET   0/424
INTERUSER   0/3
IP_CONNECT   719
JAMNNTPD   0/233
JAMTLAND   0/47
KATTY_KORNER   0/41
LAN   0/16
LINUX-USER   0/19
LINUXHELP   0/1155
LINUX   1977/22300
LINUX_BBS   0/957
mail   18.68
mail_fore_ok   249
MENSA   0/341
MODERATOR   0/102
MONTE   0/992
MOSCOW_OKLAHOMA   0/1245
MUFFIN   0/783
MUSIC   0/321
N203_STAT   938
N203_SYSCHAT   313
NET203   321
NET204   69
NET_DEV   0/10
NORD.ADMIN   0/101
NORD.CHAT   0/2572
NORD.FIDONET   189
NORD.HARDWARE   0/28
NORD.KULTUR   0/114
NORD.PROG   0/32
NORD.SOFTWARE   0/88
NORD.TEKNIK   0/58
NORD   0/453
OCCULT_CHAT   0/93
OS2BBS   0/787
OS2DOSBBS   0/580
OS2HW   0/42
OS2INET   0/37
OS2LAN   0/134
OS2PROG   0/36
OS2REXX   0/113
OS2USER-L   207
OS2   0/4830
OSDEBATE   0/18996
PASCAL   0/490
PERL   0/457
PHP   0/45
POINTS   0/405
POLITICS   6163/29554
POL_INC   0/14731
PSION   103
R20_ADMIN   1133
R20_AMATORRADIO   0/2
R20_BEST_OF_FIDONET   16
R20_CHAT   0/896
R20_DEPP   0/3
R20_DEV   400
R20_ECHO2   1830
R20_ECHOPRES   0/35
R20_ESTAT   0/719
R20_FIDONETPROG...
...RAM.MYPOINT
  0/2
R20_FIDONETPROGRAM   0/22
R20_FIDONET   0/248
R20_FILEFIND   0/24
R20_FILEFOUND   0/22
R20_HIFI   0/3
R20_INFO2   3723
R20_INTERNET   0/12940
R20_INTRESSE   0/60
R20_INTR_KOM   0/99
R20_KANDIDAT.CHAT   42
R20_KANDIDAT   28
R20_KOM_DEV   112
R20_KONTROLL   0/13360
R20_KORSET   0/18
R20_LOKALTRAFIK   0/24
R20_MODERATOR   0/1852
R20_NC   76
R20_NET200   245
R20_NETWORK.OTH...
...ERNETS
  0/13
R20_OPERATIVSYS...
...TEM.LINUX
  0/44
R20_PROGRAMVAROR   0/1
R20_REC2NEC   534
R20_SFOSM   0/341
R20_SF   0/108
R20_SPRAK.ENGLISH   0/1
R20_SQUISH   107
R20_TEST   2
R20_WORST_OF_FIDONET   20
RAR   0/9
RA_MULTI   106
RA_UTIL   0/162
REGCON.EUR   0/2068
REGCON   0/13
SCIENCE   0/1206
SF   0/239
SHAREWARE_SUPPORT   0/5146
SHAREWRE   0/14
SIMPSONS   0/169
STATS_OLD1   0/2539.065
STATS_OLD2   0/2530
STATS_OLD3   0/2395.095
STATS_OLD4   788/1692.25
SURVIVOR   0/495
SYSOPS_CORNER   0/3
SYSOP   0/84
TAGLINES   0/112
TEAMOS2   0/4530
TECH   0/2617
TEST.444   0/105
TRAPDOOR   0/19
TREK   0/755
TUB   0/290
UFO   0/40
UNIX   0/1316
USA_EURLINK   0/102
USR_MODEMS   0/1
VATICAN   0/2740
VIETNAM_VETS   0/14
VIRUS   0/378
VIRUS_INFO   0/201
VISUAL_BASIC   0/473
WHITEHOUSE   0/5187
WIN2000   0/101
WIN32   0/30
WIN95   0/4291
WIN95_OLD1   0/70272
WINDOWS   0/1517
WWB_SYSOP   0/419
WWB_TECH   0/810
ZCC-PUBLIC   0/1
ZEC   4

 
4DOS   0/134
ABORTION   0/7
ALASKA_CHAT   0/506
ALLFIX_FILE   0/1313
ALLFIX_FILE_OLD1   0/7997
ALT_DOS   0/152
AMATEUR_RADIO   0/1039
AMIGASALE   0/14
AMIGA   0/331
AMIGA_INT   0/1
AMIGA_PROG   0/20
AMIGA_SYSOP   0/26
ANIME   0/15
ARGUS   0/924
ASCII_ART   0/340
ASIAN_LINK   0/651
ASTRONOMY   0/417
AUDIO   0/92
AUTOMOBILE_RACING   0/105
BABYLON5   0/17862
BAG   135
BATPOWER   0/361
BBBS.ENGLISH   0/382
BBSLAW   0/109
BBS_ADS   0/5290
BBS_INTERNET   0/507
BIBLE   0/3563
BINKD   0/1119
BINKLEY   0/215
BLUEWAVE   0/2173
CABLE_MODEMS   0/25
CBM   0/46
CDRECORD   0/66
CDROM   0/20
CLASSIC_COMPUTER   0/378
COMICS   0/15
CONSPRCY   0/899
COOKING   41444
COOKING_OLD1   4445/24719
COOKING_OLD2   31018/40862
COOKING_OLD3   29307/37489
COOKING_OLD4   4536/35496
COOKING_OLD5   9370
C_ECHO   0/189
C_PLUSPLUS   0/31
DIRTY_DOZEN   0/201
DOORGAMES   2102/2285
DOS_INTERNET   0/196
duplikat   6102
ECHOLIST   0/18295
EC_SUPPORT   0/318
ELECTRONICS   0/359
ELEKTRONIK.GER   1534
ENET.LINGUISTIC   0/13
ENET.POLITICS   0/4
ENET.SOFT   0/11701
ENET.SYSOP   34296
ENET.TALKS   0/32
ENGLISH_TUTOR   0/2000
EVOLUTION   0/1335
FDECHO   0/217
FDN_ANNOUNCE   0/7068
FIDONEWS   25062
FIDONEWS_OLD1   0/49742
FIDONEWS_OLD2   0/35949
FIDONEWS_OLD3   0/30874
FIDONEWS_OLD4   0/37224
FIDO_SYSOP   12922
FIDO_UTIL   0/180
FILEFIND   0/209
FILEGATE   0/212
Möte HAM, 16660 texter
 lista första sista föregående nästa
Text 2829, 774 rader
Skriven 2009-03-05 23:00:21 av Amsat List (1:323/120.0)
Ärende: [keps]  orb09064.amsa
=============================
[keps]  orb09064.amsa

Return-Path: <keps-bounces@amsat.org>
X-Rcpt: craig.healy@chowda.com
X-UIDL: 1236312059.58279

SB KEPS @ AMSAT  $ORB09064.O
Orbital Elements  09064.OSCAR

HR AMSAT ORBITAL ELEMENTS FOR OSCAR SATELLITES
FROM WA5QGD FORT WORTH,TX March 5, 2009
Send Subscribe/unsubscribe to KEPS at 
http://www.amsat.org/mailman/listinfo/keps
BID: ORB09064.O
TO ALL RADIO AMATEURS BT

Satellite: AO-07
Catalog number: 07530
Epoch time:      09064.50008816
Element set:     418
Inclination:      101.4386 deg
RA of node:       092.9458 deg
Eccentricity:    0.0012071
Arg of perigee:   111.3895 deg
Mean anomaly:     248.8468 deg
Mean motion:   12.53575438 rev/day
Decay rate:       -2.7e-07 rev/day^2
Epoch rev:           56972
Checksum:              314

Satellite: AO-10
Catalog number: 14129
Epoch time:      09063.34409699
Element set:     629
Inclination:      025.9805 deg
RA of node:       168.5651 deg
Eccentricity:    0.5977441
Arg of perigee:   202.9830 deg
Mean anomaly:     112.1219 deg
Mean motion:   02.05871203 rev/day
Decay rate:      -3.40e-06 rev/day^2
Epoch rev:           19346
Checksum:              305

Satellite: UO-11
Catalog number: 14781
Epoch time:      09063.67106061
Element set:     902
Inclination:      098.1214 deg
RA of node:       107.1210 deg
Eccentricity:    0.0008371
Arg of perigee:   319.7772 deg
Mean anomaly:     040.2832 deg
Mean motion:   14.79696307 rev/day
Decay rate:      -1.34e-06 rev/day^2
Epoch rev:           34237
Checksum:              280

Satellite: RS-15
Catalog number: 23439
Epoch time:      09063.94457153
Element set:    0211
Inclination:      064.8138 deg
RA of node:       073.3859 deg
Eccentricity:    0.0146088
Arg of perigee:   071.8556 deg
Mean anomaly:     289.8214 deg
Mean motion:   11.27553205 rev/day
Decay rate:       -3.9e-07 rev/day^2
Epoch rev:           58436
Checksum:              326

Satellite: FO-29
Catalog number: 24278
Epoch time:      09063.72935825
Element set:    0998
Inclination:      098.5654 deg
RA of node:       311.7231 deg
Eccentricity:    0.0349795
Arg of perigee:   261.0130 deg
Mean anomaly:     095.1267 deg
Mean motion:   13.52942584 rev/day
Decay rate:       -4.9e-07 rev/day^2
Epoch rev:           61962
Checksum:              346

Satellite: SO-33
Catalog number: 25509
Epoch time:      09063.83991548
Element set:    0402
Inclination:      031.4303 deg
RA of node:       282.5327 deg
Eccentricity:    0.0354335
Arg of perigee:   146.2558 deg
Mean anomaly:     216.1166 deg
Mean motion:   14.28243419 rev/day
Decay rate:       1.45e-06 rev/day^2
Epoch rev:           54090
Checksum:              294

Satellite: AO-40
Catalog number: 26609
Epoch time:      09064.39775925
Element set:     198
Inclination:      008.8446 deg
RA of node:       029.8585 deg
Eccentricity:    0.7953643
Arg of perigee:   181.6962 deg
Mean anomaly:     171.4779 deg
Mean motion:   01.25583845 rev/day
Decay rate:      -2.00e-06 rev/day^2
Epoch rev:            3832
Checksum:              354

Satellite: RS-22
Catalog number: 27939
Epoch time:      09064.46741965
Element set:     731
Inclination:      097.9604 deg
RA of node:       303.0219 deg
Eccentricity:    0.0014647
Arg of perigee:   098.9150 deg
Mean anomaly:     261.3682 deg
Mean motion:   14.63298458 rev/day
Decay rate:        6.4e-07 rev/day^2
Epoch rev:           29040
Checksum:              327

Satellite: VO-52
Catalog number: 28650
Epoch time:      09064.24501409
Element set:     170
Inclination:      097.7536 deg
RA of node:       129.2066 deg
Eccentricity:    0.0027469
Arg of perigee:   011.5126 deg
Mean anomaly:     348.6665 deg
Mean motion:   14.81557050 rev/day
Decay rate:      -2.68e-06 rev/day^2
Epoch rev:           20725
Checksum:              304

Satellite: PO-63
Catalog number: 29712
Epoch time:      09064.67889543
Element set:     287
Inclination:      097.8413 deg
RA of node:       123.5087 deg
Eccentricity:    0.0013065
Arg of perigee:   250.8005 deg
Mean anomaly:     109.1783 deg
Mean motion:   14.80460098 rev/day
Decay rate:       4.40e-06 rev/day^2
Epoch rev:           11615
Checksum:              310

/EX
SB KEPS @ AMSAT  $ORB09064.D
Orbital Elements  09064.MICROS

HR AMSAT ORBITAL ELEMENTS FOR THE MICROSATS
FROM WA5QGD FORT WORTH,TX March 5, 2009
Send Subscribe/unsubscribe to KEPS at 
http://www.amsat.org/mailman/listinfo/keps
BID: ORB09064.D
TO ALL RADIO AMATEURS BT

Satellite: AO-16
Catalog number: 20439
Epoch time:      09063.66149009
Element set:     548
Inclination:      098.2671 deg
RA of node:       036.8853 deg
Eccentricity:    0.0011723
Arg of perigee:   118.8667 deg
Mean anomaly:     241.3704 deg
Mean motion:   14.31817340 rev/day
Decay rate:        1.1e-07 rev/day^2
Epoch rev:           99819
Checksum:              314

Satellite: LO-19
Catalog number: 20442
Epoch time:      09063.45614326
Element set:    0472
Inclination:      098.2317 deg
RA of node:       044.3503 deg
Eccentricity:    0.0012788
Arg of perigee:   117.1249 deg
Mean anomaly:     243.1228 deg
Mean motion:   14.32053599 rev/day
Decay rate:       -6.2e-07 rev/day^2
Epoch rev:           99832
Checksum:              298

Satellite: AO-27
Catalog number: 22825
Epoch time:      09064.46644063
Element set:     191
Inclination:      098.4234 deg
RA of node:       021.2212 deg
Eccentricity:    0.0007931
Arg of perigee:   205.5585 deg
Mean anomaly:     154.5221 deg
Mean motion:   14.29260013 rev/day
Decay rate:        4.3e-07 rev/day^2
Epoch rev:           80509
Checksum:              269

